| time (UTC) | temp C | wind direction | speed KPH | gust KPH | rain 1hr cm | rain 24hr cm | rain mn cm | humidity % | barometer mb |
| 20260901041803 | 25 | 158 | 0.0 | 0.0 | 0.00 | 0.00 | 0.00 | 83 | 1012.2 |
| 20260901040402 | 25 | 158 | 0.0 | 0.0 | 0.00 | 0.00 | 0.00 | 83 | 1011.9 |
| 20260901035102 | 25 | 158 | 0.0 | 0.0 | 0.00 | 0.00 | 0.00 | 83 | 1011.9 |
| 20260901033702 | 26 | 158 | 0.0 | 0.0 | 0.00 | 0.00 | 0.00 | 83 | 1011.5 |
| 20260901031403 | 26 | 158 | 0.0 | 0.0 | 0.00 | 0.00 | 0.00 | 83 | 1011.9 |
| 20260901030303 | 26 | 158 | 0.0 | 0.0 | 0.00 | 0.00 | 0.00 | 83 | 1011.5 |
| 20260901024802 | 26 | 158 | 0.0 | 0.0 | 0.00 | 0.00 | 0.00 | 83 | 1011.9 |
| 20260901023602 | 26 | 158 | 0.0 | 0.0 | 0.00 | 0.00 | 0.00 | 83 | 1011.5 |
| 20260901022502 | 26 | 158 | 0.0 | 0.0 | 0.00 | 0.00 | 0.00 | 83 | 1011.5 |
| 20260901021202 | 26 | 158 | 0.0 | 0.0 | 0.00 | 0.00 | 0.00 | 81 | 1011.2 |
| 20260901020003 | 26 | 158 | 0.0 | 0.0 | 0.00 | 0.00 | 0.00 | 81 | 1011.2 |
| 20260901014903 | 27 | 158 | 0.0 | 0.0 | 0.00 | 0.00 | 0.00 | 81 | 1010.8 |
| 20260901012502 | 27 | 158 | 0.0 | 0.0 | 0.00 | 0.00 | 0.00 | 78 | 1011.2 |
| 20260901011402 | 28 | 158 | 0.0 | 0.0 | 0.00 | 0.00 | 0.00 | 76 | 1011.2 |
| 20260901010202 | 28 | 158 | 0.0 | 0.0 | 0.00 | 0.00 | 0.00 | 78 | 1011.2 |
| 20260901005102 | 28 | 158 | 0.0 | 0.0 | 0.00 | 0.00 | 0.00 | 75 | 1011.2 |
| 20260901004003 | 28 | 113 | 0.0 | 0.0 | 0.00 | 0.00 | 0.00 | 74 | 1011.2 |
| 20260901002901 | 28 | 158 | 0.0 | 0.0 | 0.00 | 0.00 | 0.00 | 73 | 1011.2 |
| 20260901001502 | 29 | 135 | 0.0 | 0.0 | 0.00 | 0.00 | 0.00 | 71 | 1011.2 |
| 20260901000402 | 30 | 158 | 0.0 | 0.0 | 0.00 | 0.00 | 0.00 | 71 | 1010.8 |
| 20260831234102 | 30 | 158 | 0.0 | 0.0 | 0.00 | 0.00 | 0.00 | 66 | 1011.2 |
| 20260831233003 | 31 | 158 | 0.0 | 0.0 | 0.00 | 0.00 | 0.00 | 73 | 1011.5 |
| 20260831232002 | 30 | 158 | 0.0 | 0.0 | 0.00 | 0.00 | 0.00 | 69 | 1011.2 |
| 20260831230902 | 30 | 180 | 0.0 | 1.6 | 0.00 | 0.00 | 0.00 | 69 | 1011.2 |
| 20260831225802 | 30 | 135 | 1.6 | 3.2 | 0.00 | 0.00 | 0.00 | 69 | 1011.2 |
| 20260831222402 | 31 | 338 | 1.6 | 3.2 | 0.00 | 0.00 | 0.00 | 63 | 1011.5 |
| 20260831221301 | 32 | 248 | 1.6 | 6.4 | 0.00 | 0.00 | 0.00 | 61 | 1011.2 |
| 20260831220202 | 32 | 180 | 3.2 | 4.8 | 0.00 | 0.00 | 0.00 | 63 | 1011.5 |
| 20260831215003 | 31 | 113 | 4.8 | 4.8 | 0.00 | 0.00 | 0.00 | 61 | 1011.5 |
| 20260831213902 | 31 | 113 | 8.0 | 9.7 | 0.00 | 0.00 | 0.00 | 60 | 1011.2 |
| 20260831212802 | 32 | 135 | 6.4 | 8.0 | 0.00 | 0.00 | 0.00 | 60 | 1011.5 |
| 20260831211702 | 33 | 113 | 3.2 | 9.7 | 0.00 | 0.00 | 0.00 | 61 | 1011.2 |
| 20260831210602 | 33 | 113 | 8.0 | 8.0 | 0.00 | 0.00 | 0.00 | 59 | 1011.2 |
| 20260831205402 | 33 | 158 | 4.8 | 6.4 | 0.00 | 0.00 | 0.00 | 61 | 1011.5 |
| 20260831204402 | 33 | 225 | 3.2 | 4.8 | 0.00 | 0.00 | 0.00 | 61 | 1011.2 |
| 20260831203301 | 32 | 113 | 6.4 | 6.4 | 0.00 | 0.00 | 0.00 | 60 | 1011.5 |
| 20260831202202 | 32 | 113 | 4.8 | 8.0 | 0.00 | 0.00 | 0.00 | 61 | 1011.5 |
| 20260831201103 | 32 | 90 | 4.8 | 4.8 | 0.00 | 0.00 | 0.00 | 61 | 1011.5 |
| 20260831194602 | 33 | 135 | 3.2 | 8.0 | 0.00 | 0.00 | 0.00 | 60 | 1011.5 |
| 20260831193502 | 32 | 113 | 6.4 | 8.0 | 0.00 | 0.00 | 0.00 | 63 | 1011.5 |
| 20260831192402 | 32 | 158 | 3.2 | 6.4 | 0.00 | 0.00 | 0.00 | 63 | 1011.5 |
| 20260831191302 | 31 | 113 | 4.8 | 11.3 | 0.00 | 0.00 | 0.00 | 65 | 1011.5 |
| 20260831190202 | 31 | 135 | 3.2 | 8.0 | 0.00 | 0.00 | 0.00 | 66 | 1011.5 |
| 20260831185202 | 31 | 158 | 3.2 | 6.4 | 0.00 | 0.00 | 0.00 | 68 | 1011.5 |
| 20260831184102 | 30 | 90 | 6.4 | 6.4 | 0.00 | 0.00 | 0.00 | 68 | 1011.5 |
| 20260831183003 | 30 | 90 | 4.8 | 4.8 | 0.00 | 0.00 | 0.00 | 68 | 1011.5 |
| 20260831180702 | 28 | 270 | 3.2 | 6.4 | 0.00 | 0.00 | 0.00 | 70 | 1011.9 |
| 20260831175502 | 29 | 135 | 6.4 | 6.4 | 0.00 | 0.00 | 0.00 | 71 | 1011.5 |
| 20260831174402 | 28 | 0 | 3.2 | 6.4 | 0.00 | 0.00 | 0.00 | 70 | 1011.9 |
| 20260831173302 | 28 | 135 | 4.8 | 4.8 | 0.00 | 0.00 | 0.00 | 73 | 1011.5 |
| 20260831172202 | 28 | 68 | 4.8 | 4.8 | 0.00 | 0.00 | 0.00 | 75 | 1011.5 |
| 20260831171102 | 27 | 270 | 1.6 | 6.4 | 0.00 | 0.00 | 0.00 | 73 | 1011.5 |
| 20260831170003 | 27 | 158 | 0.0 | 3.2 | 0.00 | 0.00 | 0.00 | 74 | 1011.5 |
| 20260831164803 | 27 | 113 | 3.2 | 6.4 | 0.00 | 0.00 | 0.00 | 74 | 1011.2 |
| 20260831163702 | 26 | 135 | 4.8 | 8.0 | 0.00 | 0.00 | 0.00 | 76 | 1011.5 |
| 20260831162602 | 26 | 293 | 4.8 | 4.8 | 0.00 | 0.00 | 0.00 | 78 | 1011.5 |
| 20260831161502 | 26 | 135 | 4.8 | 4.8 | 0.00 | 0.00 | 0.00 | 75 | 1011.5 |
| 20260831160403 | 26 | 158 | 1.6 | 4.8 | 0.00 | 0.00 | 0.00 | 75 | 1010.8 |
| 20260831154203 | 26 | 158 | 0.0 | 4.8 | 0.00 | 0.00 | 0.00 | 78 | 1010.5 |
| 20260831153102 | 25 | 113 | 6.4 | 6.4 | 0.00 | 0.00 | 0.00 | 78 | 1010.5 |
| 20260831152002 | 25 | 23 | 4.8 | 6.4 | 0.00 | 0.00 | 0.00 | 78 | 1010.5 |
| 20260831150802 | 25 | 315 | 3.2 | 3.2 | 0.00 | 0.00 | 0.00 | 80 | 1010.5 |
| 20260831145602 | 25 | 270 | 3.2 | 4.8 | 0.00 | 0.00 | 0.00 | 81 | 1010.5 |
| 20260831144502 | 24 | 90 | 4.8 | 4.8 | 0.00 | 0.00 | 0.00 | 83 | 1010.5 |
| 20260831143402 | 23 | 113 | 0.0 | 1.6 | 0.00 | 0.00 | 0.00 | 83 | 1009.8 |
| 20260831142305 | 23 | 135 | 3.2 | 3.2 | 0.00 | 0.00 | 0.00 | 83 | 1010.5 |
| 20260831141202 | 23 | 158 | 4.8 | 4.8 | 0.00 | 0.00 | 0.00 | 85 | 1009.8 |
| 20260831135003 | 23 | 293 | 6.4 | 12.9 | 0.00 | 0.00 | 0.00 | 83 | 1008.5 |
| 20260831133902 | 23 | 68 | 6.4 | 8.0 | 0.00 | 0.00 | 0.00 | 83 | 1010.5 |
| 20260831132602 | 24 | 158 | 4.8 | 4.8 | 0.00 | 0.00 | 0.00 | 83 | 1010.5 |
| 20260831123202 | 23 | 135 | 0.0 | 6.4 | 0.00 | 0.00 | 0.00 | 86 | 1010.2 |
| 20260831122002 | 23 | 90 | 3.2 | 6.4 | 0.00 | 0.00 | 0.00 | 86 | 1009.8 |
| 20260831115802 | 23 | 113 | 4.8 | 4.8 | 0.00 | 0.00 | 0.00 | 86 | 1009.5 |
| 20260831114702 | 23 | 135 | 3.2 | 3.2 | 0.00 | 0.00 | 0.00 | 86 | 1009.5 |
| 20260831113602 | 23 | 135 | 3.2 | 3.2 | 0.00 | 0.00 | 0.00 | 86 | 1009.5 |
| 20260831112502 | 23 | 135 | 4.8 | 4.8 | 0.00 | 0.00 | 0.00 | 86 | 1009.1 |
| 20260831111302 | 23 | 135 | 0.0 | 0.0 | 0.00 | 0.00 | 0.00 | 86 | 1008.5 |
| 20260831110003 | 23 | 158 | 0.0 | 0.0 | 0.00 | 0.00 | 0.00 | 86 | 1008.5 |
| 20260831105002 | 23 | 158 | 0.0 | 3.2 | 0.00 | 0.00 | 0.00 | 86 | 1008.8 |
| 20260831103902 | 23 | 158 | 3.2 | 3.2 | 0.00 | 0.00 | 0.00 | 86 | 1008.8 |
| 20260831102803 | 23 | 158 | 0.0 | 0.0 | 0.00 | 0.00 | 0.00 | 88 | 1008.5 |
| 20260831101302 | 23 | 158 | 0.0 | 0.0 | 0.00 | 0.00 | 0.00 | 88 | 1008.8 |
| 20260831093703 | 23 | 135 | 0.0 | 0.0 | 0.00 | 0.00 | 0.00 | 88 | 1008.5 |
| 20260831091503 | 23 | 158 | 0.0 | 0.0 | 0.00 | 0.00 | 0.00 | 86 | 1008.1 |
| 20260831090502 | 23 | 158 | 0.0 | 0.0 | 0.00 | 0.00 | 0.00 | 86 | 1007.8 |
| 20260831085402 | 23 | 113 | 0.0 | 3.2 | 0.00 | 0.00 | 0.00 | 86 | 1008.1 |
| 20260831084302 | 23 | 135 | 0.0 | 0.0 | 0.00 | 0.00 | 0.00 | 86 | 1008.1 |
| 20260831083102 | 24 | 158 | 0.0 | 0.0 | 0.00 | 0.00 | 0.00 | 86 | 1007.8 |
| 20260831081902 | 24 | 158 | 0.0 | 0.0 | 0.00 | 0.00 | 0.00 | 86 | 1007.5 |
| 20260831074903 | 25 | 158 | 0.0 | 0.0 | 0.00 | 0.00 | 0.00 | 85 | 1007.8 |
| 20260831072503 | 25 | 180 | 0.0 | 0.0 | 0.00 | 0.00 | 0.00 | 85 | 1007.5 |
| 20260831064003 | 25 | 180 | 0.0 | 0.0 | 0.00 | 0.00 | 0.00 | 83 | 1008.1 |
| 20260831062602 | 25 | 180 | 0.0 | 1.6 | 0.00 | 0.00 | 0.00 | 83 | 1008.1 |
| 20260831061202 | 25 | 225 | 0.0 | 0.0 | 0.00 | 0.00 | 0.00 | 81 | 1007.8 |
| 20260831055002 | 25 | 225 | 0.0 | 0.0 | 0.00 | 0.00 | 0.00 | 81 | 1007.8 |
| 20260831053902 | 26 | 180 | 0.0 | 0.0 | 0.00 | 0.00 | 0.00 | 81 | 1007.8 |
| 20260831052502 | 26 | 180 | 0.0 | 0.0 | 0.00 | 0.00 | 0.00 | 81 | 1007.8 |
| 20260831045002 | 26 | 293 | 0.0 | 0.0 | 0.00 | 0.00 | 0.00 | 79 | 1007.8 |
| 20260831043902 | 27 | 113 | 0.0 | 0.0 | 0.00 | 0.00 | 0.00 | 78 | 1007.5 |
| 20260831042802 | 27 | 158 | 0.0 | 0.0 | 0.00 | 0.00 | 0.00 | 78 | 1007.5 |